Weather History for West Point, VA

Change the Weather History Date:

Sunday, January 27, 2013

  Actual Average (KRIC) Record (KRIC)
Temperature  
Mean Temperature 30 °F 38 °F  
Max Temperature 40 °F 48 °F 74 °F (1974)
Min Temperature 22 °F 29 °F -6 °F (1940)
Degree Days  
Heating Degree Days 34 27  
Month to date heating degree days 729  
Since 1 July heating degree days 2148  
Cooling Degree Days 0 0  
Month to date cooling degree days 0  
Year to date cooling degree days 0  
Moisture  
Dew Point 25 °F    
Average Humidity 76    
Maximum Humidity 98    
Minimum Humidity 51    
Precipitation  
Precipitation 0.00 in 0.10 in 1.32 in (1976)
Month to date precipitation 2.64  
Year to date precipitation 2.64  
Snow  
Snow 0.00 in 0.20 in 7.70 in (1922)
Month to date snowfall 3.3  
Since 1 July snowfall 5.6  
Snow Depth -    
Sea Level Pressure  
Sea Level Pressure 30.55 in    
Wind  
Wind Speed 1 mph (WSW)    
Max Wind Speed 8 mph    
Max Gust Speed -    
Visibility 10 miles    
Events      
T = Trace of Precipitation, MM = Missing Value Source: NWS Daily Summary

Daily Weather History Graph

Daily Weather History Graph

Search for Another Location

Airport:

Trip Planner

Search our weather history database for the weather conditions in past years. The results will help you decide how hot, cold, wet, or windy it might be!

Date:

Astronomy

Jan. 27, 2013 Rise Set
Actual Time 7:14 AM EST 5:25 PM EST
Civil Twilight 6:46 AM EST 5:53 PM EST
Nautical Twilight 6:14 AM EST 6:25 PM EST
Astronomical Twilight 5:44 AM EST 6:56 PM EST
Moon 6:15 PM EST (1/27) 7:07 AM EST (1/27)
Length of Visible Light 11h 07m
Length of Day
10h 11m
Full, 100% of the Moon is Illuminated
Jan 27
Full
Feb 3
Last Quarter
Feb 10
New
Feb 17
First Quarter
Feb 25
Full

Hourly Weather History & Observations

Time (EST) Temp. Windchill Dew Point Humidity Pressure Visibility Wind Dir Wind Speed Gust Speed Precip Events Conditions
12:15 AM 31.1 °F - 28.2 °F 89% 30.47 in 10.0 mi Calm Calm - N/A   Overcast
12:35 AM 31.1 °F - 28.0 °F 88% 30.47 in 10.0 mi Calm Calm - N/A   Overcast
12:55 AM 30.6 °F - 27.7 °F 89% 30.47 in 10.0 mi Calm Calm - N/A   Overcast
1:15 AM 30.2 °F - 28.0 °F 92% 30.47 in 10.0 mi Calm Calm - N/A   Overcast
1:35 AM 30.2 °F - 28.4 °F 93% 30.48 in 10.0 mi Calm Calm - N/A   Overcast
1:55 AM 30.2 °F - 28.0 °F 92% 30.49 in 10.0 mi Calm Calm - N/A   Overcast
2:15 AM 30.2 °F - 28.0 °F 92% 30.49 in 10.0 mi Calm Calm - N/A   Overcast
2:35 AM 29.8 °F - 28.4 °F 94% 30.50 in 10.0 mi Calm Calm - N/A   Overcast
2:55 AM 30.7 °F - 27.5 °F 88% 30.50 in 10.0 mi Calm Calm - N/A   Overcast
3:15 AM 31.1 °F - 26.2 °F 82% 30.50 in 10.0 mi Calm Calm - N/A   Overcast
3:35 AM 30.2 °F - 27.0 °F 88% 30.50 in 10.0 mi Calm Calm - N/A   Overcast
3:55 AM 30.7 °F - 25.5 °F 81% 30.51 in 10.0 mi Calm Calm - N/A   Overcast
4:15 AM 30.9 °F - 24.4 °F 77% 30.52 in 10.0 mi Calm Calm - N/A   Overcast
4:35 AM 30.7 °F - 24.1 °F 76% 30.50 in 10.0 mi Calm Calm - N/A   Overcast
4:55 AM 29.5 °F - 25.7 °F 86% 30.50 in 10.0 mi Calm Calm - N/A   Overcast
5:15 AM 29.1 °F - 25.3 °F 86% 30.50 in 10.0 mi Calm Calm - N/A   Overcast
5:35 AM 27.1 °F - 24.4 °F 90% 30.51 in 10.0 mi Calm Calm - N/A   Overcast
5:55 AM 27.7 °F - 24.6 °F 88% 30.52 in 10.0 mi Calm Calm - N/A   Overcast
6:15 AM 26.6 °F - 24.1 °F 90% 30.54 in 10.0 mi Calm Calm - N/A   Overcast
6:35 AM 26.4 °F 22.4 °F 24.6 °F 93% 30.54 in 10.0 mi NE 3.5 mph - N/A   Scattered Clouds
7:15 AM 24.1 °F - 23.2 °F 96% 30.56 in 10.0 mi Calm Calm - N/A   Clear
7:35 AM 23.9 °F - 23.4 °F 98% 30.57 in 10.0 mi Calm Calm - N/A   Clear
7:55 AM 22.1 °F - 21.6 °F 98% 30.58 in 10.0 mi Calm Calm - N/A   Clear
8:15 AM 26.4 °F - 25.5 °F 96% 30.59 in 10.0 mi Calm Calm - N/A   Clear
8:35 AM 28.6 °F - 26.8 °F 93% 30.59 in 10.0 mi Calm Calm - N/A   Clear
8:55 AM 31.1 °F - 27.1 °F 85% 30.60 in 10.0 mi Calm Calm - N/A   Clear
9:15 AM 32.2 °F - 24.8 °F 74% 30.61 in 10.0 mi Calm Calm - N/A   Clear
9:35 AM 32.9 °F - 24.1 °F 70% 30.62 in 10.0 mi Calm Calm - N/A   Clear
9:55 AM 34.0 °F - 23.9 °F 67% 30.63 in 10.0 mi Calm Calm - N/A   Scattered Clouds
10:15 AM 35.6 °F 31.7 °F 24.8 °F 65% 30.63 in 10.0 mi NNW 4.6 mph - N/A   Mostly Cloudy
10:35 AM 34.7 °F 31.8 °F 23.4 °F 63% 30.64 in 10.0 mi NW 3.5 mph - N/A   Scattered Clouds
10:55 AM 35.6 °F 30.7 °F 23.4 °F 61% 30.63 in 10.0 mi NNW 5.8 mph - N/A   Clear
11:15 AM 35.8 °F 31.9 °F 22.8 °F 59% 30.63 in 10.0 mi East 4.6 mph - N/A   Clear
11:35 AM 36.7 °F 32.9 °F 22.5 °F 56% 30.62 in 10.0 mi NW 4.6 mph - N/A   Scattered Clouds
11:55 AM 36.3 °F - 21.6 °F 55% 30.61 in 10.0 mi Calm Calm - N/A   Mostly Cloudy
12:15 PM 37.8 °F 31.8 °F 23.0 °F 55% 30.60 in 10.0 mi WSW 8.1 mph - N/A   Scattered Clouds
12:35 PM 36.9 °F 32.2 °F 22.5 °F 56% 30.59 in 10.0 mi SW 5.8 mph - N/A   Mostly Cloudy
12:55 PM 37.8 °F 35.3 °F 22.6 °F 54% 30.58 in 10.0 mi WSW 3.5 mph - N/A   Scattered Clouds
1:15 PM 38.1 °F 34.6 °F 22.8 °F 54% 30.57 in 10.0 mi WSW 4.6 mph - N/A   Clear
1:35 PM 38.1 °F 33.7 °F 22.5 °F 53% 30.57 in 10.0 mi WSW 5.8 mph - N/A   Clear
1:55 PM 38.7 °F - 22.6 °F 53% 30.56 in 10.0 mi Calm Calm - N/A   Clear
2:15 PM 39.2 °F 34.2 °F 22.8 °F 52% 30.56 in 10.0 mi WSW 6.9 mph - N/A   Clear
2:35 PM 38.7 °F 36.3 °F 22.5 °F 52% 30.55 in 10.0 mi West 3.5 mph - N/A   Clear
2:55 PM 39.7 °F 35.6 °F 23.4 °F 52% 30.54 in 10.0 mi North 5.8 mph - N/A   Clear
3:15 PM 39.2 °F - 22.5 °F 51% 30.55 in 10.0 mi Calm Calm - N/A   Clear
3:35 PM 39.4 °F 36.1 °F 23.0 °F 52% 30.54 in 10.0 mi SW 4.6 mph - N/A   Clear
3:55 PM 38.7 °F - 23.0 °F 53% 30.55 in 10.0 mi Calm Calm - N/A   Clear
4:15 PM 38.5 °F - 22.3 °F 52% 30.55 in 10.0 mi Calm Calm - N/A   Clear
4:35 PM 38.3 °F - 22.5 °F 53% 30.56 in 10.0 mi Calm Calm - N/A   Clear
4:55 PM 38.1 °F - 22.5 °F 53% 30.55 in 10.0 mi Calm Calm - N/A   Clear
5:15 PM 36.5 °F - 23.7 °F 60% 30.56 in 10.0 mi Calm Calm - N/A   Clear
5:35 PM 33.8 °F - 23.5 °F 66% 30.56 in 10.0 mi Calm Calm - N/A   Clear
5:55 PM 33.3 °F 30.2 °F 23.9 °F 69% 30.57 in 10.0 mi SSW 3.5 mph - N/A   Clear
6:15 PM 34.9 °F 30.8 °F 25.3 °F 68% 30.57 in 10.0 mi SW 4.6 mph - N/A   Clear
6:35 PM 35.2 °F 32.4 °F 25.0 °F 66% 30.57 in 10.0 mi SSW 3.5 mph - N/A   Clear
6:55 PM 32.0 °F - 24.4 °F 74% 30.57 in 10.0 mi Calm Calm - N/A   Clear
7:15 PM 30.9 °F - 24.8 °F 78% 30.57 in 10.0 mi Calm Calm - N/A   Clear
7:35 PM 30.2 °F 25.4 °F 24.6 °F 80% 30.56 in 10.0 mi East 4.6 mph - N/A   Clear
7:55 PM 29.3 °F 25.6 °F 24.3 °F 81% 30.56 in 10.0 mi East 3.5 mph - N/A   Clear
8:15 PM 29.7 °F 26.1 °F 24.3 °F 80% 30.55 in 10.0 mi ESE 3.5 mph - N/A   Clear
8:35 PM 29.8 °F - 25.0 °F 82% 30.56 in 10.0 mi Calm Calm - N/A   Clear
8:55 PM 29.1 °F - 24.8 °F 84% 30.56 in 10.0 mi Calm Calm - N/A   Clear
9:15 PM 27.3 °F - 24.1 °F 88% 30.56 in 10.0 mi Calm Calm - N/A   Clear
9:35 PM 27.7 °F 22.4 °F 25.7 °F 92% 30.54 in 10.0 mi SSE 4.6 mph - N/A   Clear
9:55 PM 29.7 °F - 25.5 °F 85% 30.55 in 10.0 mi Calm Calm - N/A   Clear
10:15 PM 28.9 °F - 25.7 °F 88% 30.57 in 10.0 mi Calm Calm - N/A   Clear
10:35 PM 26.4 °F 20.9 °F 24.3 °F 92% 30.56 in 10.0 mi East 4.6 mph - N/A   Clear
10:55 PM 27.0 °F - 25.5 °F 94% 30.54 in 10.0 mi Calm Calm - N/A   Clear
11:15 PM 30.0 °F - 26.4 °F 86% 30.55 in 10.0 mi Calm Calm - N/A   Clear
11:35 PM 29.3 °F - 26.1 °F 88% 30.55 in 10.0 mi Calm Calm - N/A   Clear
11:55 PM 30.7 °F - 27.3 °F 87% 30.54 in 10.0 mi Calm Calm - N/A   Clear